Regional Weather Roundup
Issued by NWS Goodland, KS

Home | Current Version | Previous Version | Graphics & Text | Print | Product List | Glossary On
Versions: 1 2 3 4 5 6 7 8 9 10 11 12 13 14 15 16 17 18 19 20 21 22 23 24 25 26 27 28 29 30 31 32 33 34 35 36 37 38 39 40 41 42 43 44 45 46 47 48 49 50
000
ASUS43 KGLD 231259
RWRGLD

GOODLAND FORECAST AREA HOURLY WEATHER ROUNDUP
NATIONAL WEATHER SERVICE GOODLAND KS
700 AM MDT WED APR 23 2014

...OFFICIAL OBSERVATIONS...

CITY           SKY/WX    TMP DP  RH WIND       PRES   REMARKS
GOODLAND KS    CLOUDY    63  42  46 S23G33    29.61S
HILL CITY KS   PTSUNNY   56  43  61 S16G24    29.67F
IMPERIAL NEB   CLOUDY    58  43  57 S9        29.53F
MCCOOK NEB     CLOUDY    56  46  69 SE10      29.60F
AKRON CO       CLOUDY    59  35  40 SW21      29.56S
BURLINGTON CO  CLOUDY    61  41  47 S23G30    29.64S
LIMON CO       CLOUDY    50  37  61 S13       29.67R
$$

...UNOFFICIAL OBSERVATIONS...

CITY           SKY/WX    TMP DP  RH WIND       PRES   REMARKS
COLBY KS       SUNNY     63  45  51 S22G31    29.62F
LENORA KS        N/A     55  32  41 SE23        N/A
LEOTI KS         N/A     60  32  34 S15         N/A
NORTON KS      SUNNY     54  39  58 SE16G22   29.65S
SHARON SPRINGS   N/A     59  42  52 S20G30      N/A
WAKEENEY KS      N/A     57  45  63 MISG        N/A
KIT CARSON CO    N/A     57  42  58 MISG        N/A
$$



USA.gov is the U.S. government's official web portal to all federal, state and local government web resources and services.